Weather History for KMQE - September, 2013

Change the Weather History Date:

Wednesday, September 4, 2013

  Actual Average (KBOS) Record (KBOS)
Temperature  
Mean Temperature 67 °F 69 °F  
Max Temperature 78 °F 76 °F 94 °F (1973)
Min Temperature 57 °F 61 °F 43 °F (1872)
Degree Days  
Heating Degree Days 0 1  
Month to date heating degree days 4  
Since 1 July heating degree days 17  
Cooling Degree Days 2 5  
Month to date cooling degree days 20  
Year to date cooling degree days 679  
Growing Degree Days 17 (Base 50)    
Moisture  
Dew Point 56 °F    
Average Humidity 68    
Maximum Humidity 93    
Minimum Humidity 46    
Precipitation  
Precipitation 0.00 in 0.10 in 1.73 in (1905)
Month to date precipitation 0.40  
Year to date precipitation 29.02  
Sea Level Pressure  
Sea Level Pressure 29.90 in    
Wind  
Wind Speed 11 mph (West)    
Max Wind Speed 16 mph    
Max Gust Speed 25 mph    
T = Trace of Precipitation, MM = Missing Value Source: NWS Daily Summary

Daily Weather History Graph

Daily Weather History Graph

Search for Another Location

Airport or City:

Trip Planner

Search our weather history database for the weather conditions in past years. The results will help you decide how hot, cold, wet, or windy it might be!

Date:

Astronomy

Sep. 04, 2013 Rise Set
Actual Time 6:13 AM EDT 7:12 PM EDT
Civil Twilight 5:44 AM EDT 7:41 PM EDT
Nautical Twilight 5:10 AM EDT 8:15 PM EDT
Astronomical Twilight 4:34 AM EDT 8:50 PM EDT
Moon 5:22 AM EDT (9/4) 6:30 PM EDT (9/4)
Length of Visible Light 13h 56m
Length of Day
12h 59m
Waning Crescent, 1% of the Moon is Illuminated
Sep 4
Waning Crescent
Sep 5
New
Sep 12
First Quarter
Sep 19
Full
Sep 26
Last Quarter

Hourly Weather History & Observations

Time (EDT) Temp. Dew Point Humidity Pressure Visibility Wind Dir Wind Speed Gust Speed Precip Events Conditions
12:54 AM 61.0 °F 57.0 °F 87% 29.84 in - West 11.5 mph - N/A   Unknown
1:54 AM 60.1 °F 55.9 °F 86% 29.84 in - West 11.5 mph - N/A   Unknown
2:54 AM 59.0 °F 55.0 °F 87% 29.84 in - West 11.5 mph - N/A   Unknown
3:54 AM 57.9 °F 55.0 °F 90% 29.86 in - West 10.4 mph - N/A   Unknown
4:54 AM 57.9 °F 55.0 °F 90% 29.87 in - West 11.5 mph - N/A   Unknown
5:54 AM 57.0 °F 55.0 °F 93% 29.88 in - West 11.5 mph - N/A   Unknown
6:54 AM 57.0 °F 55.0 °F 93% 29.90 in - West 11.5 mph - N/A   Unknown
7:54 AM 61.0 °F 57.0 °F 87% 29.91 in - WNW 9.2 mph - N/A   Unknown
8:54 AM 66.0 °F 59.0 °F 78% 29.93 in - NW 9.2 mph - N/A   Unknown
9:54 AM 70.0 °F 57.9 °F 65% 29.93 in - West 8.1 mph - N/A   Unknown
10:54 AM 72.0 °F 55.9 °F 57% 29.92 in - West 12.7 mph - N/A   Unknown
11:54 AM 73.9 °F 55.9 °F 53% 29.92 in - West 13.8 mph 18.4 mph N/A   Unknown
12:54 PM 75.9 °F 55.0 °F 48% 29.91 in - West 9.2 mph 18.4 mph N/A   Unknown
1:54 PM 77.0 °F 57.0 °F 50% 29.91 in - West 10.4 mph - N/A   Unknown
2:54 PM 77.0 °F 55.9 °F 48% 29.91 in - WSW 13.8 mph 23.0 mph N/A   Unknown
3:54 PM 77.0 °F 55.0 °F 47% 29.91 in - WNW 12.7 mph 23.0 mph N/A   Unknown
4:54 PM 75.9 °F 55.0 °F 48% 29.91 in - West 10.4 mph 21.9 mph N/A   Unknown
5:54 PM 75.0 °F 53.1 °F 46% 29.90 in - West 16.1 mph 25.3 mph N/A   Unknown
6:54 PM 72.0 °F 55.0 °F 55% 29.91 in - West 12.7 mph - N/A   Unknown
7:54 PM 69.1 °F 55.0 °F 61% 29.92 in - West 13.8 mph - N/A   Unknown
8:54 PM 69.1 °F 53.1 °F 57% 29.94 in - West 12.7 mph 20.7 mph N/A   Unknown
9:54 PM 66.9 °F 55.0 °F 66% 29.94 in - West 11.5 mph - N/A   Unknown
10:54 PM 64.9 °F 55.0 °F 70% 29.95 in - WSW 11.5 mph - N/A   Unknown
11:54 PM 64.0 °F 55.9 °F 75% 29.95 in - SW 9.2 mph - N/A   Unknown